Date,TemperatureHighF,TemperatureAvgF,TemperatureLowF,DewpointHighF,DewpointAvgF,DewpointLowF,HumidityHigh,HumidityAvg,HumidityLow,PressureMaxIn,PressureMinIn,WindSpeedMaxMPH,WindSpeedAvgMPH,GustSpeedMaxMPH,PrecipitationSumIn
2013-7-1,76.8,67.5,57.0,57.2,54.5,49.4,88,65,40,29.98,29.89,12,7,21,0.00
2013-7-2,70.0,64.2,58.7,61.4,57.5,55.2,89,79,65,30.01,29.94,11,5,16,0.00
2013-7-3,77.9,64.8,59.1,63.8,59.3,56.4,92,83,56,30.03,29.96,5,2,10,0.00
2013-7-4,81.6,70.6,57.9,66.8,61.5,54.9,91,74,55,30.06,29.97,11,6,17,0.00
2013-7-5,82.7,72.4,59.5,69.6,63.7,56.9,92,76,50,30.04,29.96,9,4,13,0.00
2013-7-6,82.3,73.0,63.5,70.4,66.9,60.8,92,82,59,30.01,29.92,9,3,14,0.00
2013-7-7,87.5,77.2,66.4,74.8,69.5,63.4,90,78,58,29.97,29.89,11,6,19,0.00
2013-7-8,84.6,77.5,72.1,77.0,71.9,68.7,90,83,68,30.00,29.90,14,7,18,0.21
2013-7-9,85.6,78.9,73.9,79.1,74.4,70.5,89,86,77,29.97,29.81,10,4,14,0.07
2013-7-10,84.5,76.8,65.7,75.0,70.4,62.0,90,81,64,29.94,29.76,13,6,21,0.31
2013-7-11,79.3,71.1,59.6,64.6,59.8,55.2,91,69,47,30.03,29.94,10,3,14,0.00
2013-7-12,85.8,70.9,56.1,65.5,57.1,46.9,90,65,33,30.09,30.00,6,1,9,0.00
2013-7-13,81.7,72.2,59.4,66.6,62.6,56.5,90,73,51,30.09,30.01,8,3,12,0.00
2013-7-14,88.3,76.8,63.5,73.4,68.5,60.5,90,77,58,30.12,30.04,10,4,13,0.00
2013-7-15,88.8,79.1,69.2,77.6,72.6,65.9,90,81,65,30.19,30.11,7,2,9,0.00
2013-7-16,90.3,81.7,70.7,76.5,73.0,67.3,89,76,56,30.25,30.18,8,4,12,0.00
2013-7-17,92.8,80.0,69.7,77.7,72.8,66.2,90,80,52,30.26,30.11,6,2,10,0.00
2013-7-18,91.1,81.9,71.8,78.9,74.5,68.4,89,79,61,30.13,29.91,8,4,13,0.00
2013-7-19,91.7,82.6,73.4,78.7,74.1,70.0,89,77,58,29.92,29.73,13,7,21,0.00
2013-7-20,86.2,78.9,71.2,74.8,69.5,63.8,90,74,49,29.86,29.75,8,3,11,0.10
2013-7-21,81.8,72.9,63.8,73.5,68.4,60.8,91,86,69,29.89,29.79,6,2,8,0.05
2013-7-22,86.4,76.3,66.0,73.2,69.2,62.6,91,80,58,29.80,29.70,15,2,23,0.00
2013-7-23,80.2,71.0,61.5,70.7,64.3,57.6,91,80,62,29.90,29.69,18,6,24,0.03
2013-7-24,75.3,66.2,54.4,59.2,55.8,51.8,91,71,51,30.01,29.89,11,4,15,0.00
2013-7-25,79.9,66.8,51.0,63.4,56.5,48.1,91,72,49,30.08,30.00,4,1,10,0.00
2013-7-26,71.9,65.6,60.3,67.7,62.0,57.1,90,88,81,30.01,29.86,11,5,17,0.18
2013-7-27,67.8,60.1,52.3,59.0,53.7,48.9,91,80,59,29.92,29.85,15,7,22,0.00
2013-7-28,71.1,60.2,49.3,56.4,52.0,46.8,91,76,52,30.01,29.89,14,6,23,0.00
2013-7-29,77.1,64.2,48.5,63.1,54.6,45.9,92,73,48,30.12,30.01,7,2,15,0.00
2013-7-30,67.4,65.0,61.0,64.4,61.6,57.0,91,89,84,30.12,29.99,10,4,14,0.41
2013-7-31,73.5,68.9,65.1,69.1,65.6,61.8,92,89,83,30.00,29.92,9,3,13,0.03